Regional Weather Roundup
Issued by NWS

Home | Current Version | Previous Version | Graphics & Text | Print | Product List | Glossary On
Versions: 1 2 3 4 5 6 7 8 9 10 11 12 13 14 15 16 17 18 19 20 21 22 23 24 25 26 27
000
ASUS45 KSLC 211710
RWRUT

UTAH REGIONAL WEATHER ROUNDUP
NATIONAL WEATHER SERVICE SALT LAKE CITY UT
1100 AM MDT FRI JUL 21 2017

UTZ001>011-023>025-211800-

NORTHERN UTAH

CITY           SKY/WX    TMP DP  RH WIND       PRES   REMARKS
BRIGHAM CITY   SUNNY     85  40  20 N3        30.10S
HILL AFB       SUNNY     84  53  33 CALM      30.13R
LOGAN          SUNNY     80  55  42 VRB5      30.12S
OGDEN          SUNNY     85  56  37 N6        30.09R
SALT LAKE CITY MOSUNNY   88  53  30 S10       30.07S
TOOELE VALLEY  SUNNY     86  50  28 N7        30.09S
WENDOVER       SUNNY     85  37  18 SE7       30.10S
HEBER CITY     MOSUNNY   81  50  34 N6        30.17S
WEST JORDAN    SUNNY     85  61  44 SE8       30.11S

$$

UTZ011>015-024>027-211800-

CENTRAL/NORTHEAST UTAH

CITY           SKY/WX    TMP DP  RH WIND       PRES   REMARKS
PROVO AIRPORT  SUNNY     85  53  33 SE8       30.12S
MOAB/CANYONLAN MOSUNNY   84  56  38 NE5       30.12S
DELTA          SUNNY     84  45  24 SW5       30.12F
PRICE          SUNNY     79  53  40 MISG      30.23S
ROOSEVELT      SUNNY     82  48  30 CALM      30.18F
VERNAL         SUNNY     81  54  39 SE6       30.17F

$$

UTZ013>016-019>022-027-211800-

SOUTHERN UTAH

CITY           SKY/WX    TMP DP  RH WIND       PRES   REMARKS
BRYCE CANYON   SUNNY     73  52  47 VRB3      30.36S
CEDAR CITY     MOSUNNY   84  49  29 VRB5      30.20S
MILFORD        SUNNY     85  53  33 S16       30.14S
ST GEORGE      MOSUNNY   90  54  29 S3        30.03S
HANKSVILLE     MOSUNNY   82  54  36 S7        30.15S
BLANDING       PTSUNNY   73  57  59 CALM      30.33R

$$

REGIONAL REPORTS     COLORADO/ARIZONA

CITY           SKY/WX    TMP DP  RH WIND       PRES   REMARKS
CRAIG, CO      MOSUNNY   82  50  32 N6        30.24F
GRAND JUNCTION CLOUDY    82  52  35 SE8       30.16S
RIFLE, CO      CLOUDY    76  55  48 W5        30.22S
MONTROSE, CO   CLOUDY    79  50  36 VRB3      30.22F
CORTEZ, CO     CLOUDY    77  55  46 CALM      30.25S
COLORADO CITY    N/A     86  54  32 CALM      30.20S
PAGE, AZ       SUNNY     86  58  38 N8        30.12S
GRAND CANYON   MOSUNNY   74  55  51 SW8       30.32S
KINGMAN, AZ    SUNNY     91  53  27 MISG      30.09R
FLAGSTAFF, AZ  PTSUNNY   66  58  75 VRB5      30.34S

$$

REGIONAL REPORTS    NEVADA/IDAHO/WYOMING

CITY           SKY/WX    TMP DP  RH WIND       PRES   REMARKS
LAS VEGAS, NV  MOSUNNY   97  41  14 SE7       29.95S HX  92
ELY, NY        SUNNY     76  43  30 N5        30.24S
ELKO, NV       SUNNY     78  31  17 E5        30.18S
POCATELLO, ID  SUNNY     78  43  28 W7        30.16S
BURLEY, ID     SUNNY     74  45  35 VRB6      30.13F
FORT BRIDGER,    N/A     74  53  47 NW6       30.32S
EVANSTON, WY   CLOUDY    76  53  44 N5        30.29F
ROCK SPRINGS,  CLOUDY    71  52  50 SW5       30.28S
KEMMERER, WY     N/A     75  39  27 N3        30.31S

$$




USA.gov is the U.S. government's official web portal to all federal, state and local government web resources and services.